Regional Weather Roundup
Issued by NWS Upton, NY

Home | Current Version | Previous Version | Text Only | Print | Product List | Glossary On
Versions: 1 2 3 4 5 6 7 8 9 10 11 12 13 14 15 16 17 18 19 20 21 22 23 24 25 26 27 28 29 30 31 32 33 34 35 36 37 38 39 40 41 42 43 44 45 46 47 48 49 50
000
ASUS41 KOKX 240611
RWROKX

REGIONAL WEATHER ROUNDUP
NATIONAL WEATHER SERVICE NEW YORK NY
100 AM EST FRI NOV 24 2017

NOTE: "FAIR" INDICATES FEW OR NO CLOUDS BELOW 12,000 FEET WITH NO
SIGNIFICANT WEATHER AND/OR OBSTRUCTIONS TO VISIBILITY.

NYZ071-072-176-178-NJZ106-104-240700-
NEW YORK CITY METRO AREA

CITY           SKY/WX    TMP DP  RH WIND       PRES   REMARKS
Central Park   CLEAR     37  21  52 W5        30.05F WCI  33
Bronx Bot Gard   N/A     36  21  55 W7        30.05S WCI  30
Bronx Lehman C   N/A     36  32  87 W5          N/A  WCI  32
LaGuardia APRT PTCLDY    39  21  48 W8        30.04S WCI  33
Queens College   N/A     37  32  81 NW6         N/A  WCI  33
Kennedy INTL   CLEAR     37  22  54 W7        30.05S WCI  32
Breezy Point     N/A     36 N/A N/A W7          N/A  WCI  30
Brooklyn Coll    N/A     37  32  81 W2          N/A
Staten Island    N/A     32  32 100 S1          N/A
Newark/Liberty PTCLDY    32  20  61 SW3       30.04F
Teterboro      CLEAR     32  22  66 CALM      30.03F
$$

NYZ177-179-078>081-240700-
LONG ISLAND NEW YORK

CITY           SKY/WX    TMP DP  RH WIND       PRES   REMARKS
Jones Beach      N/A     39 N/A N/A NW6         N/A  WCI  35
Wantagh          N/A     34  32  93 W5          N/A  WCI  30
Matinecock PT    N/A     39 N/A N/A W9          N/A  WCI  33
Farmingdale    CLEAR     33  24  69 NW3       30.03F
MacArthur/ISP  CLEAR     30  23  75 W3        30.03R
Shirley        CLEAR     29  25  85 CALM      30.03S
Mt Sinai Harb    N/A    N/A N/A N/A SW2         N/A
Westhampton    CLEAR     22  18  85 CALM      30.04S
East Hampton   FAIR      26  23  89 CALM      30.02R
Southold         N/A     32  32 100 SW2         N/A
Montauk        NOT AVBL
$$

NYZ052-065-067-240700-
HUDSON VALLEY

CITY           SKY/WX    TMP DP  RH WIND       PRES   REMARKS
White Plains   CLEAR     31  21  66 W5        30.00F WCI  26
Larchmont Harb   N/A     36 N/A N/A SW5         N/A  WCI  32
Croton On Huds   N/A    N/A N/A N/A NE2         N/A
Somers           N/A     32  32 100 S1          N/A
Brewster         N/A     27  32 100 CALM        N/A
Newburgh       CLEAR     30  23  74 CALM      30.01F
Montgomery     CLEAR     28  20  71 CALM      30.00F
Suffern          N/A     32  32 100 SW1         N/A
Poughkeepsie   CLEAR     26  21  81 CALM      30.00F
Albany         CLOUDY    33  21  61 S5        29.99S WCI  29
$$

NJZ001-105-106-008-010-013-015-019>022-104-240700-
NEW JERSEY

CITY           SKY/WX    TMP DP  RH WIND       PRES   REMARKS
Newark/Liberty PTCLDY    32  20  61 SW3       30.04F
Teterboro      CLEAR     32  22  66 CALM      30.03F
Caldwell       CLEAR     29  21  72 SW3       30.04F
Somerville     CLEAR     23  21  92 CALM      30.03F
Linden         FAIR      32  20  61 CALM      30.05F
Perth Amboy      N/A     34 N/A N/A W7          N/A  WCI  28
Sussex         CLEAR     24  21  88 CALM      30.01F
Andover        NOT AVBL
Trenton        CLEAR     30  20  66 W5        30.04F WCI  25
Millville      CLEAR     23  22  96 W3        30.07F
Atlantic City  CLEAR     29  23  78 CALM      30.07F
Wrightstown    CLEAR     24  21  89 CALM      30.03F
Toms River     CLEAR     22  19  89 CALM      30.07F
Belmar         CLEAR     30  21  69 S3        30.06S
$$

PAZ047>061-062-071-240700-
EASTERN PENNSYLVANIA

CITY           SKY/WX    TMP DP  RH WIND       PRES   REMARKS
Philadelphia   CLEAR     34  22  61 W3        30.07F
Allentown      CLEAR     25  19  78 CALM      30.04F
Scranton       CLEAR     29  22  75 S3        30.00S
$$

CTZ002-004>006-009-010-012-RIZ004-006-007-MAZ004-011-015-240700-
SOUTHERN NEW ENGLAND
 IN CT

CITY           SKY/WX    TMP DP  RH WIND       PRES   REMARKS
Bradley INTL   CLEAR     30  21  69 CALM      30.00S
Hartford       CLEAR     28  23  81 CALM      30.01F
Danbury        CLEAR     25  20  81 CALM      30.02F
Wtrbury/Oxford CLEAR     26  20  77 CALM      29.99F
Norwalk Harbor   N/A     36 N/A N/A W7          N/A  WCI  30
Bridgeport     CLEAR     32  22  66 NW6       30.02F WCI  26
Meriden        CLEAR     24  21  88 CALM      30.02S
New Haven      CLEAR     27  22  81 CALM      30.02S
Chester        FAIR      28  18  64 CALM      29.99F
Groton         CLEAR     30  24  78 NE3       30.01S
Wilimantic     CLEAR     28  23  81 CALM      30.00F

 IN RI

CITY           SKY/WX    TMP DP  RH WIND       PRES   REMARKS
Providence     CLOUDY    30  24  78 SW3       30.01F
Block Island   CLEAR     39  24  55 W5        30.02R
Westerly       PTCLDY    28  26  92 CALM      30.01F
 IN MA

CITY           SKY/WX    TMP DP  RH WIND       PRES   REMARKS
Boston         CLEAR     32  21  64 SW6       29.98F WCI  26
Worcester      PTCLDY    29  18  63 W8        29.94F WCI  21
Westfield      CLEAR     28  21  75 CALM      29.99S
Provincetown   CLEAR     37  28  70 W9        29.98  WCI  30
Nantucket      CLEAR     35  25  66 NW7       30.00S WCI  29
$$

ANZ330-335-338-340-345-350-353-355-240700-
COASTAL MARINE OBSERVATIONS


STATION/POSITION TIME  SKY/WX   TEMP    WIND        PRES    VSBY  WAVE
                                AIR SEA DIR/SP/G                  HT/PER
                 (UTC)          (F)     (DEG/KT/KT) (MB)    (MI)  (FT/S)
NY HARB ENTRANCE 0550            42 55  280/ 10/ 12 1016.8          3/10
20 S FIRE ISLAND 0550            44 56  290/ 10/ 16 1017.1          4/10
GREAT SOUTH BAY  0530            39 44  280/  6/ 10   N/A
HUDSON CANYON    0450            45 58  290/ 10/ 14 1016.9          5/ 9
KINGS POINT      0542            39 50  340/  6/  7 1017.9
EXECUTION ROCKS  0545            39     250/  6/ 10   N/A
WESTERN LI SOUND 0545            39     280/  8/ 12   N/A           0
CENTRAL LI SOUND 0545            43     300/ 10/ 14   N/A           1
ROBBINS REEF     0542            36     260/  7/  8 1017.9
$$


>>>>>>>>>>>>>>>>>>>>>>>>>>>> KEY <<<<<<<<<<<<<<<<<<<<<<<<<<<
>                                                          <
>     SKY/WX - Sky Condition/Present Weather               <
>     TMP    - Temperature in Fahrenheit                   <
>     DP     - Dew Point in Fahrenheit                     <
>     RH     - Relative Humidity in Percent                <
>     WIND   - Direction (from) and Speed in MPH           <
>     PRES   - Mean Sea Level Pressure (inches of Hg)      <
>     WCI    - Wind Chill Index                            <
>     VSB    - VISIBILITY IN MILES                         <
>     HX     - HEAT INDEX                                  <
>     TC     - TEMPERATURE IN CELSIUS                      <
>     VRB    - VARIABLE WIND DIRECTION                     <
>                                                          <
>>>>>>>>>>>>>>>>>>>>>>>>>>>> KEY <<<<<<<<<<<<<<<<<<<<<<<<<<<



USA.gov is the U.S. government's official web portal to all federal, state and local government web resources and services.